Theta_e
352 351 350 349 349 350 350 349 349 349 348 350 350 350 350 350 348 347 347 347 347 346 346 346 349 353 348 346 350 351 351 352 349 348 348 349 350 344 338 337 335 334 334 336 338 333 329 332 333 334 336 336 336 335 334 336 338 340 344 346 345 340 338 336 333 328 323 320 319 319 319 318 318 318
353 353 352 351 350 351 350 350 351 350 349 349 350 350 351 351 350 349 350 349 348 347 347 346 347 350 350 349 350 350 351 352 349 348 351 352 348 339 338 338 335 334 335 334 339 337 331 331 333 336 337 338 338 338 337 336 337 338 340 343 347 345 341 338 337 335 330 325 320 319 319 319 318 317
353 351 351 351 350 351 350 350 350 350 350 349 350 351 351 352 351 350 351 350 349 348 348 348 347 348 350 350 350 349 349 351 350 348 350 350 343 339 344 343 337 334 334 334 338 339 336 334 335 337 338 340 340 340 340 338 337 338 338 339 343 346 346 342 338 337 336 333 327 321 319 319 319 318
353 348 347 348 348 350 350 350 351 352 352 351 350 350 351 351 351 352 352 352 352 350 349 350 348 348 350 350 351 351 350 351 351 349 350 347 343 346 350 349 344 339 335 334 336 339 340 339 339 340 340 342 342 342 342 342 340 338 337 337 339 342 345 346 342 339 336 336 334 330 324 320 319 319
353 348 345 346 346 347 348 351 352 352 352 353 351 352 352 351 352 353 352 352 353 352 351 352 350 350 350 350 351 352 351 351 350 349 349 347 348 351 351 350 349 345 338 335 335 337 340 341 342 343 342 342 342 343 342 343 342 341 339 337 337 337 341 344 345 343 340 337 336 335 332 327 322 320
349 347 345 345 346 347 347 349 352 353 353 354 353 353 354 354 354 354 352 350 352 353 354 353 352 352 352 351 352 351 350 350 347 345 347 349 349 350 349 348 350 348 342 336 334 335 336 338 340 340 341 340 340 340 341 341 341 341 341 339 337 335 337 341 344 345 344 341 338 336 335 334 330 325
349 348 347 347 350 353 354 353 354 355 355 355 355 355 355 355 355 355 352 348 350 353 354 353 353 354 352 351 350 349 349 349 347 346 348 349 349 348 348 347 347 347 343 334 332 333 332 333 335 335 335 336 336 336 337 338 339 339 340 340 339 337 336 337 341 344 345 344 341 339 337 335 334 332
352 352 350 351 353 355 354 353 353 355 356 356 356 355 356 355 354 355 352 349 349 351 352 352 351 351 350 350 351 351 350 350 350 348 346 347 349 347 346 347 346 345 342 336 334 331 329 329 330 330 330 330 331 331 330 332 334 336 337 337 338 338 337 336 337 341 344 345 344 343 341 338 335 334
349 350 351 353 354 354 354 353 354 356 356 356 355 356 356 356 355 354 351 350 349 349 351 352 350 350 352 352 352 351 349 348 349 348 347 348 348 345 343 345 345 342 341 341 340 336 332 330 328 327 328 327 327 328 328 329 330 331 333 333 333 335 337 336 335 337 341 345 345 345 344 342 339 336
347 348 349 350 351 352 353 354 355 355 354 354 355 355 354 353 353 352 351 351 350 350 352 353 352 353 353 353 351 350 348 345 344 346 347 347 348 345 339 338 341 342 342 342 340 339 340 336 328 325 326 327 327 326 326 328 329 331 332 332 332 333 335 336 335 335 337 341 345 345 345 344 342 340
352 351 351 351 350 351 350 351 354 354 354 355 355 354 353 352 351 350 351 352 350 352 353 352 352 352 351 350 349 349 348 344 344 346 347 346 345 342 335 332 334 337 337 337 338 340 342 339 333 329 326 325 326 327 327 328 330 332 333 333 334 334 335 336 336 334 334 337 342 345 345 345 343 342
354 354 355 354 354 354 352 350 351 353 354 354 355 354 352 350 349 348 350 351 350 351 351 350 350 350 350 350 348 347 348 347 348 348 348 347 345 344 340 338 339 337 335 339 343 343 342 341 342 342 337 329 325 326 327 329 331 334 335 335 335 335 336 337 336 335 334 334 337 341 344 344 344 344
354 353 354 353 353 355 352 346 343 345 346 346 348 350 349 347 346 347 348 350 350 350 350 350 350 350 349 348 347 346 347 347 348 347 349 351 349 348 346 342 343 347 347 346 345 341 340 340 341 343 342 339 334 330 331 332 331 333 335 335 335 335 336 335 334 335 335 334 334 337 341 343 344 344
353 352 352 352 352 349 344 338 337 338 338 337 340 342 342 342 342 343 345 348 350 351 351 350 349 348 347 346 345 346 346 345 345 346 349 351 351 351 349 341 339 345 349 346 338 333 335 338 335 332 335 341 342 342 345 342 335 332 333 334 334 334 335 334 334 334 334 334 333 333 336 340 342 343
352 352 351 351 351 347 342 342 342 340 339 338 337 336 337 337 338 338 340 343 346 347 349 349 348 347 346 347 346 346 345 344 345 347 348 349 348 349 350 346 339 338 342 344 339 332 332 335 336 330 330 336 340 344 347 343 335 332 332 333 334 335 335 335 334 334 335 334 334 333 333 336 339 341
352 352 352 351 350 349 349 349 347 343 342 340 339 337 337 336 335 335 336 337 337 339 343 345 346 345 346 348 347 345 345 344 345 345 345 345 346 347 349 350 346 342 342 343 344 342 337 337 340 338 336 340 344 346 343 336 332 333 333 333 334 334 335 335 335 335 335 335 334 334 333 333 336 339
353 353 353 352 351 351 350 348 346 344 343 342 342 342 341 339 339 339 339 339 340 341 343 344 345 345 346 346 346 345 345 345 345 344 344 344 346 346 347 348 348 345 343 344 347 349 343 339 345 347 347 348 349 347 344 337 332 334 336 336 336 335 334 336 336 335 335 334 334 333 333 333 334 337
354 353 351 349 349 350 350 347 345 345 346 345 345 345 345 344 343 342 343 343 344 344 345 345 345 345 346 346 346 346 346 346 346 346 346 346 347 347 347 346 345 345 344 345 350 352 347 343 348 350 350 350 349 349 349 344 337 337 339 339 339 337 336 335 336 336 335 335 335 334 333 333 334 335
349 349 346 345 346 347 347 346 344 345 346 346 346 346 346 345 347 348 348 348 348 347 347 347 348 348 349 350 349 347 347 348 348 348 348 348 348 348 348 347 347 348 349 349 352 354 352 350 350 350 349 350 350 350 351 348 343 340 341 342 341 340 339 338 336 336 335 336 336 336 335 334 334 335
345 345 344 344 345 344 345 344 344 344 344 345 346 346 346 348 350 351 351 350 350 350 349 349 348 349 350 349 349 348 347 348 348 348 349 349 348 349 349 350 351 352 353 352 352 353 353 352 352 351 351 352 352 350 349 350 349 346 343 344 344 342 342 341 341 339 337 337 336 337 337 336 336 336
345 346 345 344 346 347 346 344 343 345 345 345 345 345 346 348 349 349 351 351 352 352 352 349 346 346 347 347 348 348 347 348 349 349 349 348 349 351 352 353 354 354 353 353 353 353 353 354 354 353 353 354 354 352 350 351 353 350 346 344 346 345 344 345 345 344 343 341 339 338 337 337 337 337
348 348 345 346 347 349 348 345 345 345 345 346 346 347 347 347 347 349 351 350 351 353 354 351 348 347 347 348 348 348 348 348 349 349 349 349 350 351 352 353 354 354 353 353 354 354 354 354 355 355 354 355 355 355 354 354 355 354 351 349 348 347 345 345 346 346 347 346 345 343 340 339 339 338
353 352 349 349 349 349 348 348 347 347 347 347 347 348 347 348 350 351 351 350 351 352 352 351 349 349 350 350 350 349 350 350 350 350 350 351 351 352 353 354 354 353 353 353 354 355 355 355 356 356 356 355 355 355 356 356 355 356 355 354 353 351 349 349 348 347 348 348 348 347 346 344 342 340
354 353 351 351 351 350 349 349 349 348 348 348 348 348 349 349 351 351 350 349 350 349 349 349 349 349 351 352 353 353 353 353 354 353 353 353 353 352 352 354 354 353 353 354 353 353 353 354 355 355 355 355 354 354 355 356 357 356 356 356 355 355 354 353 352 351 349 349 349 349 349 347 346 344
352 351 351 350 350 349 349 348 348 348 348 348 348 348 348 348 349 349 349 348 348 347 346 345 346 347 349 350 351 351 352 353 353 353 354 355 355 354 354 355 355 354 353 354 354 353 352 352 353 354 355 355 354 354 354 355 355 355 355 356 356 357 357 356 355 354 353 351 350 350 350 350 350 349
348 348 348 348 347 347 347 347 346 346 346 346 346 346 347 347 346 344 342 340 337 335 333 332 334 335 337 342 346 347 348 349 348 350 351 350 348 347 348 349 351 350 349 350 352 352 352 351 352 353 354 354 354 353 353 354 354 354 354 355 357 357 357 357 356 355 355 354 352 351 350 350 351 351
345 346 346 345 345 344 343 342 341 339 338 338 338 337 336 335 332 329 326 323 321 321 321 319 321 324 329 336 342 343 342 340 336 334 334 331 331 333 334 336 339 341 339 338 342 347 349 349 350 352 353 354 353 352 352 353 353 354 354 355 356 357 357 356 356 356 354 354 354 353 352 350 350 350
343 344 342 341 340 338 334 331 329 329 329 330 329 325 322 321 320 318 317 316 316 315 315 317 323 330 335 338 338 337 334 331 327 328 330 331 332 333 334 336 337 338 336 335 337 342 345 347 349 351 352 353 353 353 353 352 353 353 354 354 355 355 355 355 355 355 354 353 354 354 354 352 351 349
339 339 338 337 335 333 329 325 324 325 327 330 329 323 318 316 316 317 317 316 315 314 317 324 332 337 340 340 338 336 334 334 336 339 340 340 339 339 341 343 342 341 342 342 343 344 345 347 349 351 353 354 354 352 352 352 352 352 351 352 353 353 353 353 354 354 353 353 354 354 354 354 353 352
335 336 336 334 332 330 328 325 323 321 321 322 321 317 314 315 319 321 319 316 314 316 324 332 337 339 340 340 339 337 338 339 342 343 343 343 343 344 345 344 343 344 346 347 347 346 346 347 349 350 351 352 351 350 350 350 351 350 350 351 352 352 352 352 353 353 352 353 355 355 355 355 355 355
334 334 333 330 328 324 322 320 317 315 313 313 314 313 315 321 327 327 322 319 320 325 332 337 338 339 339 339 339 340 341 341 343 342 342 343 344 345 346 345 345 346 348 348 348 348 347 347 347 347 347 347 347 347 348 349 349 349 350 350 351 350 351 353 353 354 354 355 355 354 354 354 355 356
328 326 324 320 317 314 312 310 309 310 313 313 313 313 317 324 330 331 329 330 333 335 337 338 338 338 338 338 339 339 339 339 339 339 338 338 339 340 343 343 344 345 346 346 346 348 348 348 348 348 347 347 346 345 346 347 348 349 350 350 350 351 352 353 354 355 355 355 352 351 351 352 353 355
318 314 311 311 314 316 317 317 318 321 326 326 325 326 327 328 332 336 335 336 337 336 336 336 336 337 337 336 336 336 336 336 337 336 336 336 337 338 339 339 341 342 342 343 343 344 345 346 346 346 346 345 345 346 346 346 346 346 348 350 351 352 353 352 353 353 353 352 351 351 350 350 351 353
308 307 309 315 321 324 325 328 330 331 333 333 332 334 333 331 333 335 335 334 333 333 333 334 333 334 334 334 334 334 334 334 334 334 335 336 336 337 336 336 337 338 339 340 340 340 341 342 342 342 342 342 343 345 346 347 347 346 347 349 350 351 351 350 350 350 350 350 351 350 349 348 348 349
308 315 320 324 327 327 328 330 331 331 331 332 332 333 333 333 334 333 333 332 331 330 331 330 329 330 331 331 330 330 330 331 332 332 333 333 333 334 334 333 334 335 336 337 338 338 338 338 339 339 340 340 340 341 342 344 346 346 346 346 347 348 349 348 348 348 348 348 348 349 348 348 348 348
317 324 326 327 328 329 329 330 330 330 331 332 332 333 333 333 333 332 332 331 329 328 328 328 328 328 328 328 328 328 328 329 330 331 331 331 331 332 331 331 332 333 333 334 334 334 334 334 335 337 339 339 339 340 338 339 341 342 343 343 342 343 343 343 343 343 344 345 345 345 345 347 348 347
323 326 326 327 328 328 328 329 329 330 331 332 332 332 332 332 331 330 329 328 327 326 326 326 326 326 327 326 325 324 325 326 327 328 329 329 329 330 330 331 331 331 332 333 333 331 328 327 329 333 336 337 337 337 337 336 335 333 334 337 338 339 339 340 340 340 341 342 343 343 343 344 345 346
323 325 325 326 326 326 327 328 328 329 329 329 329 329 328 328 327 327 326 325 324 324 323 323 324 324 324 324 323 323 323 324 324 325 326 326 326 327 328 329 329 330 330 330 328 327 327 327 328 330 330 332 335 335 335 333 328 324 322 324 326 327 328 329 330 333 336 339 340 341 341 341 341 342
323 323 323 324 325 326 326 326 326 325 325 325 325 325 324 324 324 323 322 322 322 321 321 321 322 322 321 321 322 323 323 324 324 324 324 324 325 325 326 326 327 326 325 324 323 324 327 329 329 329 330 331 332 330 327 324 321 317 315 316 318 320 322 324 328 331 334 335 336 336 335 334 335 336
322 322 322 323 323 323 323 322 322 322 321 321 322 321 321 321 321 320 320 320 319 319 319 319 320 320 320 320 321 321 321 322 322 323 323 323 323 323 323 323 322 322 322 322 323 325 326 327 328 328 328 327 324 321 320 321 321 321 321 323 325 327 327 327 330 332 332 331 332 333 333 331 332 334
320 320 320 320 320 319 319 319 319 318 318 319 319 318 318 318 318 318 318 317 317 317 318 318 318 318 318 318 319 319 320 320 320 320 320 321 321 321 321 321 320 320 322 323 323 324 324 324 324 323 323 323 323 323 325 327 328 327 327 327 327 326 325 324 325 328 331 332 333 334 334 331 330 331
318 318 317 317 316 316 317 317 316 316 316 316 316 316 317 316 316 316 316 316 316 316 316 316 317 317 316 317 317 317 317 317 317 318 318 318 319 319 318 318 319 320 321 321 322 322 322 321 321 321 322 323 325 326 327 328 328 328 327 325 324 324 325 325 324 324 325 327 328 330 331 329 328 327
315 315 315 314 314 314 314 315 314 314 314 314 314 314 314 314 315 315 315 315 315 314 314 315 315 315 315 315 315 315 315 315 316 316 316 315 315 315 315 316 317 318 319 319 320 320 320 320 320 321 322 323 324 324 325 326 326 326 325 324 324 322 321 322 323 322 320 320 322 324 325 326 328 328
313 313 313 313 313 313 313 313 312 312 312 312 312 312 312 312 312 312 312 313 313 313 312 312 313 312 313 313 313 313 313 313 313 312 312 312 312 314 314 315 316 316 317 317 317 318 318 319 319 320 321 322 322 323 323 323 324 324 325 325 325 323 321 321 324 325 325 324 323 323 324 326 328 328
311 311 311 311 311 311 311 311 310 310 310 310 310 310 310 310 310 310 310 310 310 310 310 310 310 310 310 310 310 309 309 309 309 309 310 311 312 312 312 313 313 314 315 315 315 316 317 318 318 319 320 320 321 321 322 322 322 323 323 323 324 324 324 324 325 326 327 327 326 325 323 323 322 322
Wind_Speed
5 5 5 5 5 5 6 5 4 6 6 4 4 5 5 5 6 8 9 8 8 7 7 8 7 10 14 11 9 10 9 11 13 12 11 11 13 18 18 16 14 14 13 13 12 10 7 7 7 8 9 10 11 11 12 12 12 11 11 11 11 12 11 10 9 8 6 4 3 2 2 2 3 5
5 6 5 5 5 5 6 5 5 7 7 5 5 5 5 6 7 8 10 10 9 8 8 9 8 11 12 10 9 9 9 13 16 12 10 11 14 17 17 15 14 13 14 13 13 11 9 7 7 7 8 9 10 10 11 11 11 11 11 10 10 10 10 10 9 8 7 6 5 3 3 3 3 4
6 7 6 6 6 6 6 6 6 7 7 6 6 7 7 7 8 9 10 11 10 9 10 10 9 10 10 9 9 9 8 12 16 14 11 13 16 16 15 15 14 13 13 14 13 12 11 9 9 9 9 9 9 10 10 11 11 11 11 10 9 9 9 9 9 9 8 6 5 4 4 4 4 4
7 8 7 7 6 6 6 6 6 7 7 7 7 8 8 9 9 9 9 11 12 10 10 10 10 9 10 9 9 9 8 10 14 14 13 14 15 13 12 14 15 14 13 13 14 13 12 12 11 11 11 11 10 10 10 10 11 11 11 11 10 9 9 9 9 9 8 7 6 5 4 4 5 5
8 8 7 7 7 6 6 6 6 7 7 8 7 8 8 8 8 9 9 10 11 11 9 9 9 9 9 9 9 9 9 9 12 12 12 12 12 11 10 11 14 16 14 13 13 13 13 13 13 13 13 12 12 12 11 11 11 11 11 11 11 11 10 9 9 9 8 7 6 5 4 4 4 5
8 8 7 7 6 6 6 6 6 6 6 6 7 7 7 7 6 8 9 9 10 11 10 9 9 9 9 9 9 10 9 10 11 11 10 10 9 10 10 9 12 17 17 14 14 14 14 14 14 15 15 14 14 14 14 14 13 12 12 11 11 11 11 10 10 9 9 8 7 6 5 4 4 5
7 8 7 7 6 5 5 6 5 5 6 6 6 6 7 7 7 8 9 9 9 10 11 10 9 9 9 9 9 10 9 9 10 10 9 9 9 9 10 9 10 16 18 16 16 15 15 16 16 16 16 17 17 17 17 17 16 15 15 14 12 12 11 11 11 11 10 10 9 8 7 6 5 5
7 7 7 6 6 6 6 6 5 5 6 6 6 7 7 8 8 8 9 10 10 10 11 11 10 10 10 9 8 9 9 9 10 10 10 10 9 10 10 9 10 15 18 18 17 17 17 17 17 18 18 19 19 19 20 19 19 18 18 17 15 13 12 12 12 12 11 11 11 10 9 9 8 7
8 8 7 6 6 6 6 6 5 6 6 6 6 6 7 7 8 9 10 10 11 11 12 12 12 11 10 9 9 9 9 9 10 11 11 10 10 11 11 10 11 14 17 17 17 18 19 19 18 18 19 20 20 20 20 20 20 20 19 18 17 16 15 13 12 12 12 12 12 12 11 11 10 9
9 8 8 7 7 7 7 6 6 7 7 7 7 7 7 8 8 9 10 10 11 11 11 12 11 10 10 10 11 10 11 12 12 12 12 11 11 13 14 13 12 12 13 15 16 16 17 19 21 20 19 20 20 21 20 20 19 19 18 18 17 17 17 16 15 13 13 13 13 13 13 12 12 11
9 9 8 8 8 8 8 7 7 7 7 7 7 7 8 8 8 8 9 9 10 10 10 11 11 11 11 11 12 11 12 14 13 12 13 13 13 15 17 18 16 15 16 16 16 15 16 19 22 22 21 19 19 19 20 20 19 18 17 17 17 18 18 18 17 16 14 14 13 14 14 14 13 13
9 9 9 9 8 8 9 9 8 8 8 7 7 7 8 8 9 9 8 9 10 10 11 11 12 12 13 12 12 11 12 12 12 11 12 14 15 16 18 19 18 18 19 17 14 15 18 19 20 21 22 22 20 19 19 18 18 17 17 17 18 18 18 18 18 17 16 15 14 14 14 14 14 14
10 10 10 9 9 10 12 11 10 10 11 10 10 9 9 10 10 10 10 10 11 12 12 12 13 13 13 13 12 12 12 12 13 13 13 13 15 15 18 20 18 17 18 17 16 17 19 20 19 20 21 22 22 21 20 19 18 17 18 19 19 19 18 17 17 17 16 16 15 15 15 14 14 14
9 10 10 10 11 14 14 13 12 12 12 12 12 12 12 12 12 12 12 11 11 12 12 13 13 14 14 13 13 14 14 14 14 13 14 14 15 16 19 22 21 18 18 21 24 24 23 23 24 23 22 20 20 19 17 18 20 19 19 20 20 20 18 16 15 15 15 15 15 15 16 16 15 15
10 10 10 10 12 14 13 11 12 13 13 13 14 14 14 14 14 14 15 14 14 14 14 14 14 15 16 16 16 16 16 15 15 15 16 17 18 19 20 23 24 24 23 25 29 28 25 25 26 26 24 23 21 18 17 20 22 22 21 22 21 21 20 17 15 15 15 15 14 14 15 16 16 16
11 11 11 11 11 12 13 13 13 14 14 14 14 15 15 15 16 16 16 16 16 16 16 17 17 17 18 19 19 18 18 18 20 21 22 23 23 23 22 23 25 27 28 29 31 31 27 26 27 27 26 23 20 19 21 24 24 22 22 22 22 22 22 19 18 17 16 15 14 14 14 15 16 17
12 12 12 12 12 12 15 15 14 15 15 14 14 15 15 15 15 15 15 16 16 16 17 19 20 20 21 21 22 22 23 24 25 27 27 27 27 27 27 27 28 30 31 32 31 30 27 25 25 25 25 23 22 22 24 26 25 22 22 23 22 23 23 22 21 19 18 17 15 14 14 14 15 17
12 13 14 14 13 13 15 16 16 16 16 16 16 16 15 16 16 16 15 15 16 17 19 22 23 23 23 24 25 25 26 27 27 28 29 29 30 30 31 32 33 33 33 31 28 26 26 25 24 24 23 23 22 21 22 26 27 25 22 22 22 22 23 23 23 23 22 20 19 17 16 15 15 17
15 15 15 15 15 16 17 18 18 17 17 18 18 18 18 18 17 16 16 16 18 19 21 23 24 23 22 24 26 27 26 27 27 28 30 31 31 32 32 33 33 30 27 24 23 25 26 25 23 24 23 23 22 21 22 26 28 27 24 22 22 22 22 23 23 24 24 24 23 21 19 18 17 17
18 18 18 17 17 18 20 21 20 19 19 19 19 19 19 18 17 16 17 18 20 21 23 24 24 24 23 24 26 27 26 26 27 28 29 30 30 31 31 30 28 25 21 19 19 24 26 24 22 24 24 22 23 24 24 24 25 26 24 21 20 20 21 21 22 23 24 25 25 24 23 21 20 20
20 21 21 20 18 17 20 22 20 19 19 19 19 20 19 19 20 20 19 19 20 21 24 26 26 25 25 25 26 26 26 26 26 27 28 28 26 25 25 26 24 22 20 19 19 23 25 24 22 23 23 21 23 25 24 22 20 23 25 24 21 19 19 20 20 21 22 24 25 26 25 25 24 23
18 20 22 20 18 18 20 21 20 19 19 19 19 20 21 22 23 22 22 22 20 18 21 26 27 25 24 25 26 26 26 25 25 26 27 26 24 23 24 24 24 23 22 20 17 21 24 22 21 22 23 22 22 21 20 18 18 21 24 25 24 22 21 22 22 22 23 23 23 25 26 27 27 27
11 15 18 17 16 18 19 19 19 19 20 20 21 22 23 23 22 21 23 24 22 20 22 24 25 23 22 23 23 24 23 22 21 22 22 22 21 22 23 23 23 25 24 18 15 19 23 21 19 20 22 23 23 20 18 18 18 20 22 23 23 25 26 26 24 23 24 23 23 23 24 25 28 29
9 11 14 13 14 16 16 17 19 20 21 22 23 24 24 23 22 22 25 24 23 23 24 23 22 21 19 18 18 19 19 19 20 20 21 20 19 20 21 21 22 24 23 20 19 22 24 24 22 21 22 24 26 24 22 20 20 21 22 23 24 24 25 26 25 24 23 23 23 23 23 24 26 28
11 11 10 9 12 16 16 16 17 19 20 21 22 22 23 22 22 21 22 21 21 22 22 21 20 19 18 17 17 16 16 16 17 18 18 19 18 19 19 20 22 23 23 21 22 23 25 26 25 24 24 25 27 27 26 26 25 24 24 23 23 22 22 23 25 24 23 23 23 23 24 24 25 26
11 11 11 10 14 17 16 15 16 17 18 19 19 18 18 18 18 18 18 18 19 19 19 20 20 20 19 17 15 15 14 15 16 16 18 20 20 21 22 22 24 26 25 23 23 23 24 26 25 24 24 26 27 29 29 28 27 27 26 24 21 21 21 22 23 24 24 24 24 24 24 24 26 27
12 13 14 14 15 16 14 14 15 15 16 15 15 16 16 16 16 17 17 18 18 18 19 20 20 19 18 16 14 14 15 18 19 20 21 22 21 21 22 22 22 24 25 25 23 21 22 24 24 23 23 25 27 29 28 27 26 26 26 24 21 20 20 20 21 23 25 24 23 24 26 26 26 26
12 14 14 13 13 13 12 13 14 14 15 14 12 14 17 18 18 18 18 18 19 20 20 20 19 17 15 14 15 16 17 19 20 19 18 18 17 18 19 19 19 20 22 23 21 19 19 21 22 22 22 22 25 27 27 27 26 24 24 24 23 21 21 21 21 24 26 25 22 22 25 27 27 25
10 11 12 12 12 11 11 12 13 14 15 15 13 13 17 20 20 19 19 19 20 21 19 17 15 13 13 14 14 15 16 16 15 14 14 14 15 17 17 18 19 19 19 19 19 18 19 21 21 22 21 21 23 25 25 26 26 25 25 26 26 25 24 23 23 25 26 26 25 24 23 23 24 25
9 10 11 12 12 12 13 14 15 15 16 16 16 17 19 19 18 17 18 19 20 19 16 14 13 12 13 13 13 13 14 13 12 12 14 14 14 14 16 18 19 19 18 17 17 17 19 19 19 21 21 22 24 25 25 26 27 27 26 26 27 27 25 24 25 27 28 28 27 27 26 24 22 22
12 13 14 15 15 16 16 16 16 16 16 16 16 17 17 15 13 14 16 17 16 14 12 11 11 12 12 12 12 12 12 11 11 14 15 14 13 13 15 16 17 17 16 15 15 15 16 17 18 20 21 23 24 24 24 25 27 28 27 27 27 28 26 25 26 28 28 26 26 27 28 27 24 22
16 16 17 17 17 16 16 15 15 14 14 14 14 13 12 10 9 10 12 11 10 10 10 10 11 12 12 12 13 13 13 13 14 15 17 17 17 17 17 17 17 17 16 15 14 14 14 15 16 18 19 21 24 25 24 25 26 26 26 26 27 26 24 23 24 23 24 25 27 28 29 28 26 26
17 17 16 14 13 12 12 12 11 9 9 9 9 8 8 6 4 5 7 6 7 8 9 10 11 11 12 13 13 14 14 15 15 16 17 18 18 18 19 20 19 19 19 20 19 17 17 18 18 18 18 20 22 23 24 26 27 26 25 26 26 24 22 23 23 23 24 26 28 29 29 29 27 27
16 14 12 9 7 7 6 6 5 4 5 5 5 5 6 5 3 4 6 7 6 7 8 9 10 11 12 13 13 14 15 16 17 17 18 18 17 18 19 20 20 20 21 22 22 21 21 24 25 25 24 23 22 21 21 24 25 25 24 24 24 24 24 24 24 24 24 25 27 29 31 31 30 28
10 8 7 5 5 5 4 3 4 4 4 4 5 5 5 5 4 5 6 7 6 7 9 10 11 12 13 13 14 15 16 17 18 17 17 18 18 18 19 21 23 24 23 24 25 24 24 27 29 29 27 26 25 24 22 21 22 22 22 24 24 24 25 25 25 26 26 25 27 30 33 34 34 32
5 4 4 3 4 4 4 4 4 4 4 4 5 4 4 4 4 5 8 11 9 8 10 11 12 13 14 14 15 17 18 18 18 18 17 18 18 18 20 20 21 23 24 25 24 23 25 28 29 28 27 26 26 27 28 26 26 27 29 30 30 30 31 32 32 33 32 31 31 34 36 36 36 35
3 3 4 3 4 4 4 4 5 5 5 4 3 3 3 4 4 6 10 12 10 9 10 12 13 14 14 15 18 19 19 18 19 18 18 19 19 19 20 20 20 22 22 22 22 24 28 30 27 25 25 25 27 29 30 29 30 34 37 38 38 38 38 39 39 38 35 33 32 33 36 38 39 37
2 3 3 3 4 5 5 6 6 6 6 5 5 5 5 5 7 9 10 10 11 11 12 13 14 15 16 16 18 19 18 18 19 19 19 19 19 19 20 21 21 21 21 23 26 27 27 26 23 22 23 24 25 27 27 29 35 41 42 42 43 43 43 44 45 42 37 32 30 31 33 38 41 40
3 4 4 4 4 5 5 6 7 6 6 6 6 7 8 9 10 11 11 11 12 13 13 14 15 16 17 17 17 17 18 18 19 19 19 19 19 20 20 21 22 23 25 28 30 28 24 22 21 20 19 20 23 28 32 36 43 49 49 46 43 41 38 37 36 34 32 31 30 31 35 39 41 42
3 3 4 4 4 4 4 5 5 5 5 6 7 7 9 11 11 11 11 11 13 14 14 15 16 17 17 17 17 17 18 19 19 19 19 20 20 21 22 23 25 27 28 28 27 25 23 21 20 20 23 27 33 38 39 40 42 44 43 38 33 29 30 30 30 30 32 33 32 31 32 35 38 38
3 3 4 3 3 3 4 4 4 4 5 6 7 8 8 9 10 11 11 12 13 14 15 15 16 17 17 17 18 18 19 19 20 20 20 21 22 22 22 25 27 27 26 26 26 26 26 26 27 30 32 34 36 35 33 33 33 34 34 33 31 30 32 34 33 32 31 32 32 31 32 34 35 35
3 3 4 3 3 3 4 4 5 6 6 7 8 8 8 9 10 11 12 13 14 14 15 15 16 17 17 17 18 19 20 21 21 21 21 21 23 24 25 26 26 25 25 27 28 29 30 32 33 33 32 30 28 28 29 30 32 32 34 37 39 36 32 31 33 34 35 35 35 35 36 36 35 34
3 3 3 4 4 5 5 5 6 6 7 7 8 8 9 10 11 12 12 13 14 15 15 16 16 17 18 19 19 20 20 20 20 22 24 26 28 29 28 28 27 27 27 28 29 30 31 32 32 31 30 28 27 28 30 31 32 33 35 37 39 41 40 39 37 38 41 42 40 39 39 38 37 37
3 3 4 4 4 5 5 6 6 7 7 8 9 10 10 11 12 12 13 14 15 16 16 17 17 18 19 19 20 20 21 22 25 27 29 30 28 27 27 27 27 28 28 29 30 31 31 31 31 30 30 30 29 29 31 33 33 34 34 35 37 41 44 44 40 36 36 38 39 40 39 38 38 41
5 4 5 5 6 6 7 7 8 8 8 9 10 10 11 11 12 12 13 14 15 16 17 18 19 19 19 20 23 26 28 30 31 30 29 28 27 27 28 29 29 29 29 29 29 30 30 30 30 29 29 30 30 29 30 32 33 34 35 35 36 38 39 39 39 37 36 36 36 37 40 42 44 45
Wind_Direction
237 245 251 256 257 261 263 261 270 273 270 286 305 308 318 318 316 311 307 308 305 308 319 317 312 315 323 330 325 329 326 308 320 337 334 331 322 323 335 336 331 333 336 341 344 344 354 9 20 25 25 25 23 21 19 16 15 13 12 15 19 23 26 28 30 26 18 7 351 331 298 269 244 232
234 236 240 247 250 254 262 261 264 271 272 278 291 296 302 307 312 312 308 307 305 306 313 314 316 322 327 329 320 321 317 309 318 328 326 321 315 320 331 333 331 332 333 338 339 335 337 346 358 8 12 17 18 17 16 13 9 7 5 3 5 10 15 19 23 24 21 13 355 336 312 289 272 256
240 238 238 242 243 245 251 254 256 265 270 271 277 284 289 295 300 303 301 299 300 306 310 309 312 318 321 322 316 315 317 311 316 324 325 317 317 327 334 331 331 331 330 335 335 330 328 329 337 344 349 355 359 3 6 7 6 2 358 356 352 354 359 5 11 15 18 18 5 346 325 303 288 275
243 244 241 243 245 245 247 253 257 261 266 268 271 276 282 290 295 296 293 292 295 303 305 305 309 312 313 319 318 317 322 317 314 320 323 320 324 333 331 324 324 328 330 331 328 327 323 321 324 327 331 337 340 343 346 349 355 356 353 350 344 340 342 346 354 0 6 11 10 359 338 315 299 287
239 244 242 242 244 247 246 246 253 260 267 271 273 277 282 288 289 288 289 290 294 301 305 304 306 308 309 313 313 313 318 313 309 313 319 324 329 327 322 319 317 319 326 328 324 323 320 316 317 318 320 324 326 329 328 328 333 339 343 344 339 334 330 328 333 340 346 354 360 1 352 330 309 295
239 244 243 241 244 253 255 249 250 258 264 270 273 274 280 286 285 285 289 291 294 301 307 308 309 311 310 309 309 309 312 312 313 319 325 328 327 319 321 326 314 311 318 324 324 322 319 316 315 313 313 315 316 318 318 317 318 320 324 328 329 328 323 318 317 321 327 332 337 344 348 341 324 303
241 245 244 243 244 248 251 249 249 255 260 264 268 268 273 278 280 284 288 291 294 299 305 311 313 310 309 312 313 313 316 319 320 324 326 325 324 319 322 329 313 305 311 319 320 319 319 317 315 314 313 312 313 314 315 314 313 313 315 314 315 316 315 311 307 306 310 315 319 324 328 330 330 317
240 243 246 247 244 241 244 248 249 254 257 262 268 272 276 280 283 283 286 290 294 297 302 308 311 311 313 317 318 317 320 322 322 323 324 323 318 314 319 325 311 305 313 321 319 316 316 315 314 314 313 313 314 315 315 315 313 311 311 310 307 304 304 303 300 297 297 301 306 310 313 316 318 319
239 240 242 244 245 245 248 253 253 253 256 263 269 272 274 281 285 287 290 293 293 296 300 304 309 314 315 313 315 317 317 320 321 320 323 324 318 314 316 315 307 310 319 323 320 318 317 314 313 312 312 313 314 314 314 314 313 312 309 307 303 299 297 296 293 290 288 289 294 299 303 306 308 311
243 242 241 241 243 243 245 249 251 254 258 263 267 271 276 281 286 290 295 296 296 298 300 303 307 311 310 309 313 315 313 317 320 318 318 319 315 314 313 309 309 311 310 311 314 316 315 312 312 311 310 310 311 311 312 311 311 310 308 306 304 301 298 296 294 288 283 281 284 290 294 298 300 301
240 241 242 241 242 244 246 245 248 254 261 264 265 271 279 281 283 287 290 290 292 293 294 297 300 301 301 304 307 308 310 316 320 318 315 312 311 313 312 310 311 308 304 307 313 315 312 312 313 312 311 310 308 307 308 309 309 308 307 306 307 307 305 303 300 294 286 278 276 281 286 291 294 295
238 239 242 243 243 246 249 246 244 246 250 254 259 266 271 273 277 280 279 280 282 284 287 291 293 296 299 301 304 307 309 313 314 312 310 308 310 312 311 311 312 312 311 313 314 311 310 313 314 313 311 311 310 306 304 304 304 304 304 305 306 309 310 308 306 302 296 286 276 275 279 285 289 291
240 242 243 244 241 241 247 251 248 246 247 248 249 254 259 265 270 274 275 277 280 282 285 288 291 295 296 298 303 306 306 306 307 307 306 305 306 308 308 309 311 313 313 310 306 305 307 308 306 303 305 308 309 310 307 303 301 300 299 301 304 308 310 309 308 308 305 298 286 276 274 278 284 288
238 242 242 244 246 247 251 256 257 255 255 254 253 254 256 257 259 262 265 269 275 279 282 286 290 293 293 296 300 301 303 304 303 302 301 301 302 305 306 307 309 311 310 308 308 308 310 310 306 303 304 304 303 305 301 297 300 301 299 298 300 303 306 304 303 306 306 304 296 284 275 274 278 283
237 242 242 242 252 259 260 259 261 261 259 259 261 261 261 261 261 262 265 269 273 278 281 284 287 290 292 296 298 300 302 301 299 298 296 296 298 300 301 303 306 310 310 310 311 311 310 310 308 307 306 306 304 299 290 292 299 302 298 296 296 298 301 299 297 299 302 302 298 290 280 274 274 278
241 243 245 243 248 257 256 253 256 261 263 265 267 268 270 271 272 273 275 278 282 286 288 289 289 291 293 295 298 300 300 299 298 297 297 297 297 296 295 294 298 306 310 310 310 310 310 310 309 307 307 306 303 298 295 299 302 301 298 295 292 292 294 295 294 294 296 297 295 291 284 276 274 275
241 241 243 243 243 247 253 256 259 264 268 271 272 273 275 275 278 280 282 284 287 287 288 288 289 290 291 292 293 295 296 296 296 296 296 296 295 293 293 292 294 300 305 305 304 304 307 309 305 303 304 302 300 300 302 304 303 302 302 299 293 289 288 289 291 291 291 292 292 290 286 281 276 274
243 243 245 247 248 251 257 262 263 264 268 272 273 275 276 276 277 277 277 279 282 283 285 287 288 288 289 290 290 291 292 292 292 292 292 291 291 291 291 292 293 297 301 304 302 299 303 307 302 299 301 301 300 300 299 301 304 306 304 300 296 292 287 285 286 288 288 288 288 288 286 283 278 275
246 249 251 252 253 255 257 260 263 264 267 271 274 275 277 278 278 276 277 281 283 285 288 289 289 288 288 288 288 290 292 291 290 290 290 289 290 290 291 292 294 296 299 301 296 291 295 301 298 296 299 298 296 294 292 296 303 307 306 303 300 295 290 286 284 284 285 285 286 286 285 283 280 276
251 251 252 253 256 258 258 259 263 266 268 270 272 274 276 278 277 277 280 285 289 290 288 284 282 281 280 279 281 283 285 285 285 286 285 286 289 290 292 293 293 292 292 291 287 285 290 294 294 294 297 296 294 294 294 297 301 305 307 307 303 297 294 291 287 285 284 283 283 284 283 282 280 277
249 250 251 252 255 257 259 260 264 268 271 272 273 275 276 277 278 280 282 285 290 293 292 287 284 282 280 278 278 277 277 278 280 281 282 286 289 288 287 287 288 289 290 290 287 285 287 291 293 293 295 294 291 294 298 299 297 299 304 308 307 302 298 295 293 290 287 284 282 281 281 281 279 277
251 251 251 250 251 255 261 266 269 271 274 275 277 279 280 281 283 285 285 283 281 280 285 289 291 290 288 285 284 282 281 279 277 278 281 286 287 282 280 283 286 289 290 292 291 285 286 291 295 296 298 296 292 292 295 294 290 293 300 306 307 306 304 301 298 293 290 288 285 281 278 276 276 275
244 252 254 253 253 257 262 267 271 273 276 278 280 281 282 284 283 281 281 282 281 279 282 289 293 294 293 293 292 292 293 292 289 287 289 289 286 282 282 282 285 288 289 290 289 287 289 293 294 295 299 298 296 294 292 291 291 292 295 297 299 302 304 305 302 295 287 283 283 283 280 276 274 274
235 252 260 263 263 264 269 274 278 281 282 282 283 282 280 280 277 276 279 282 284 285 287 291 295 298 299 299 298 299 300 300 298 299 301 299 294 292 291 286 284 286 286 286 284 284 287 290 291 292 294 293 294 296 295 293 292 292 293 295 297 299 301 304 305 302 292 281 273 272 275 278 277 275
221 226 232 249 268 273 280 286 285 285 284 282 282 280 278 278 277 279 282 283 284 287 291 296 300 303 304 304 304 304 302 297 294 295 296 294 291 289 289 286 285 286 287 287 287 285 286 288 289 291 291 290 291 293 294 292 291 291 293 295 295 294 295 298 300 300 298 293 283 272 268 269 272 275
222 231 239 259 275 276 280 284 283 284 285 283 282 281 280 280 281 282 283 285 288 291 295 298 300 302 304 306 305 304 299 291 286 282 279 280 281 278 277 279 282 286 289 288 286 285 286 289 291 292 291 291 292 292 292 293 294 295 296 294 290 289 290 291 292 292 292 293 293 287 278 269 266 267
257 264 269 272 271 269 270 273 276 279 282 283 286 288 288 285 285 287 288 291 293 295 298 301 303 305 306 307 306 303 297 290 288 286 285 288 289 286 284 283 283 286 289 290 289 288 288 290 293 293 290 289 290 292 293 294 294 296 297 295 291 289 290 291 290 289 289 288 287 287 287 285 279 271
264 267 275 275 269 266 265 267 271 274 275 276 281 292 296 295 293 294 296 299 300 301 304 307 308 308 309 307 304 300 297 297 298 300 301 300 299 299 300 299 296 294 294 296 298 297 293 291 292 293 293 290 288 290 292 294 294 295 295 294 292 290 291 290 289 289 293 294 288 284 287 291 291 286
272 274 279 277 272 267 264 266 273 277 279 280 283 291 295 294 295 299 301 303 304 304 305 306 306 307 307 306 305 303 303 308 311 310 308 307 308 311 313 310 307 306 304 304 304 301 297 295 295 296 294 288 288 291 293 293 295 296 295 295 295 295 295 293 292 293 296 298 295 291 288 286 287 287
285 285 284 285 287 286 285 287 289 290 292 293 293 293 292 293 295 296 296 298 300 302 303 303 304 305 305 304 307 308 310 314 315 307 306 310 314 315 312 308 310 312 311 309 308 304 301 299 297 295 292 289 292 296 296 293 294 296 295 294 295 296 297 295 293 296 299 299 298 297 292 287 283 281
295 295 295 295 295 295 296 296 295 295 295 293 290 289 289 290 290 291 295 301 303 300 300 301 300 301 301 304 307 305 301 299 292 286 289 297 302 302 302 304 306 309 307 305 303 302 303 304 299 295 296 298 297 297 296 294 294 295 296 295 295 296 298 296 295 297 298 295 295 294 290 287 284 280
296 295 295 295 296 298 297 295 296 297 295 293 291 285 281 279 284 296 309 316 310 296 289 291 296 298 300 304 305 302 302 301 294 286 287 292 292 290 293 297 300 300 300 297 294 288 285 289 294 296 298 298 296 297 297 296 294 294 295 296 297 298 299 298 296 296 295 292 292 292 290 289 288 286
296 296 299 302 303 305 305 305 309 307 301 305 305 295 290 293 291 296 299 294 292 297 299 302 307 308 307 308 310 309 309 308 304 302 303 302 296 293 297 302 304 304 303 300 299 296 288 284 288 295 300 299 298 300 300 298 296 296 295 296 297 296 294 291 289 291 294 295 295 293 292 293 292 288
297 302 311 314 308 305 309 312 311 297 291 305 305 292 303 314 293 285 292 286 290 312 319 317 317 316 313 313 314 313 310 307 306 309 309 306 302 301 304 305 304 305 306 302 301 303 300 295 293 294 296 298 299 300 301 301 301 299 294 292 292 294 293 291 291 294 297 298 297 297 297 297 294 289
302 308 317 317 308 308 305 290 285 285 287 294 290 282 291 293 282 290 294 286 297 324 323 316 317 317 315 314 313 313 314 312 311 311 309 306 305 303 301 300 299 299 300 299 298 301 303 303 303 301 299 299 299 297 295 294 296 297 295 294 294 296 296 295 296 298 299 298 299 299 298 297 296 293
320 313 304 294 288 295 297 289 292 295 286 285 290 287 276 271 279 287 275 271 287 317 317 310 313 313 309 307 307 309 311 311 310 310 309 308 308 304 302 302 300 299 299 299 298 298 299 301 304 305 303 302 300 296 293 290 288 289 293 295 295 295 295 296 297 299 299 300 301 300 298 297 295 294
315 295 289 288 290 290 286 278 271 262 251 250 259 263 258 262 278 284 278 279 292 308 307 307 311 310 306 304 305 307 308 307 305 306 305 306 306 305 304 303 303 303 303 301 299 300 302 303 302 299 297 296 294 292 293 293 289 288 289 290 290 290 292 294 296 297 297 297 298 298 297 296 294 294
304 297 290 293 296 286 271 263 256 249 247 247 248 252 259 271 279 283 288 297 302 302 303 307 309 306 304 305 307 308 307 305 304 304 305 305 305 304 303 303 303 302 300 299 299 303 305 303 300 295 294 294 293 294 297 298 296 294 293 292 290 290 290 292 293 294 292 291 290 290 291 292 291 292
289 291 287 283 280 274 269 270 268 268 274 278 275 273 273 274 280 289 298 303 300 299 302 307 307 305 306 308 309 308 307 305 305 304 304 304 304 303 303 303 302 300 299 300 301 303 301 299 299 298 294 288 288 293 298 298 295 295 296 296 298 299 298 296 293 290 288 288 288 289 290 291 291 291
276 271 265 262 260 261 267 271 273 279 285 285 287 288 284 282 286 293 297 296 297 301 306 307 306 306 307 308 307 306 306 305 305 304 303 303 302 301 301 300 299 301 302 301 300 299 297 296 295 290 285 285 291 296 299 298 296 296 297 299 300 301 298 294 289 286 286 288 289 288 289 291 292 292
260 254 252 256 260 264 271 279 281 284 287 289 293 297 296 295 297 298 298 300 304 308 308 306 305 306 306 305 306 306 305 304 303 303 304 303 302 301 300 300 301 302 301 298 296 295 293 292 291 290 291 295 299 300 298 294 292 293 294 294 293 291 290 291 291 288 285 285 286 285 286 288 290 290
244 253 259 270 276 278 286 296 297 294 295 299 300 299 298 300 301 300 302 306 307 305 303 302 303 304 303 303 303 302 301 300 301 301 301 301 301 300 300 300 300 299 296 294 294 293 293 294 296 298 299 299 297 293 289 287 288 291 292 293 295 295 293 291 291 289 287 284 282 281 282 284 286 285
266 274 282 289 291 294 298 303 304 303 300 299 300 300 302 304 303 301 302 303 302 302 303 303 303 302 302 303 303 302 301 300 300 299 298 299 300 300 300 299 298 297 295 294 294 294 294 296 298 299 298 295 291 288 286 286 287 289 291 293 294 295 293 292 292 292 292 291 288 285 284 283 281 279
281 280 288 294 297 300 302 302 303 305 303 302 302 302 302 303 303 303 303 303 302 302 300 298 299 302 303 301 298 297 297 296 295 296 298 300 301 300 299 299 298 297 296 296 296 296 296 297 297 297 295 292 290 288 287 287 287 288 289 291 292 294 295 297 297 295 292 290 289 289 288 285 281 280
279 284 289 293 296 300 301 301 302 303 303 303 304 304 303 302 301 299 298 298 298 298 296 295 297 299 297 292 290 292 294 295 296 298 298 298 297 296 295 295 296 296 296 297 297 298 298 298 297 296 294 292 290 289 288 288 288 288 288 289 290 291 293 295 295 294 291 288 287 288 289 289 288 289